Orbital Elements at Epoch 2459200.5 (2020-Dec-17.0) TDB
Reference: JPL 14 (heliocentric ecliptic J2000)
Element | Value | Uncertainty (1-sigma) | Units |
e | .2169727751018814 | 5.8574e-08 | |
a | 3.131655892694195 | 2.0223e-08 | au |
q | 2.452171822992176 | 1.8789e-07 | au |
i | 16.45467672249181 | 6.3865e-06 | deg |
node | 324.9102946609696 | 1.6204e-05 | deg |
peri | 58.37199241183114 | 2.0912e-05 | deg |
M | 262.7825124052349 | 1.2847e-05 | deg |
tp | 2459747.139956114437 (2022-Jun-16.63995611) | 7.5202e-05 | TDB |
period | 2024.22824401187 5.54 | 1.9607e-05 5.368e-08 | d yr |
n | .1778455572216039 | 1.7227e-09 | deg/d |
Q | 3.811139962396214 | 2.4611e-08 | au |
|
| | Orbit Determination Parameters
Additional Information
|